Starlink 30578

operational
NORAD ID: 58093 Int'l Des: 2023-160 Owner: SPXS Country: US Constellation: starlink
LEOCIRCULAR

Über Starlink 30578

Beschreibung wird geladen...

Live-Position

3D-Globus wird geladen...

Nächste Überflüge

Höhenverlauf

Altitude vs Time

uPlot chart will show altitude changes over time

Zweizeiliger Elementsatz

1 58093U 23160U 25307.97192174 .00001136 00000-0 99172-4 0 9997
2 58093 43.0039 43.6194 0001181 274.0403 86.0304 15.02535650114003
Epoch: 3. Nov. 2025 • Age: 11 hours

Aktueller Status

Höhe 566.5 km
Geschwindigkeit 7.58 km/s
Subsatellitenpunkt -29.68°S, 66.24°E
Startdatum 18. Okt. 2023
Alter 2 years
Typ internet

Technische Details

Klassifizierung Payload
Masse 730.00 kg
Trockenmasse 700.00 kg
Gesamtmasse 730.00 kg
Länge 0.30 m
Durchmesser 4.10 m
Spannweite 29.00 m
Form Box + pan
Hersteller SPXS
Bus-Typ Starlink V2M
Phasenstatus In Orbit
Besitzer/Staat SPXS/US

Große Konstellationen

Loading constellations...